Temp
-7 -6 -6 -6 -7 -6 -7 -7 -7 -7 -6 -6 -5 -6 -6 -6 -6 -6 -6 -6 -6 -6 -7 -7 -7 -7 -7 -7 -7 -8 -8 -8 -8 -8 -8 -8 -8 -8 -8 -8 -9 -9 -9 -9 -9 -9 -9 -9 -9
-6 -6 -7 -7 -6 -6 -7 -7 -7 -6 -6 -6 -4 -4 -6 -6 -6 -6 -5 -5 -6 -6 -7 -7 -7 -7 -8 -8 -8 -8 -8 -8 -8 -8 -8 -8 -8 -8 -8 -8 -8 -9 -9 -9 -9 -9 -9 -9 -9
-5 -5 -5 -5 -5 -6 -8 -9 -7 -7 -7 -5 -5 -5 -5 -5 -6 -5 -5 -6 -6 -6 -7 -7 -7 -7 -8 -8 -8 -8 -8 -8 -8 -8 -8 -8 -8 -8 -8 -8 -9 -9 -9 -9 -9 -9 -9 -9 -9
-5 -5 -6 -5 -5 -5 -8 -7 -7 -7 -7 -6 -6 -6 -5 -5 -6 -6 -7 -7 -6 -7 -7 -7 -7 -7 -7 -8 -8 -8 -8 -8 -8 -8 -8 -8 -8 -8 -8 -8 -8 -9 -9 -9 -9 -9 -9 -9 -9
-5 -5 -7 -6 -5 -4 -6 -6 -6 -7 -6 -6 -6 -6 -6 -5 -6 -6 -8 -7 -7 -7 -7 -7 -7 -7 -8 -8 -8 -8 -9 -9 -9 -9 -8 -9 -9 -9 -9 -9 -9 -9 -9 -9 -9 -9 -9 -9 -9
-5 -6 -5 -5 -4 -5 -5 -6 -6 -6 -7 -6 -6 -6 -6 -5 -5 -7 -7 -7 -7 -7 -8 -8 -8 -7 -7 -8 -8 -8 -8 -9 -9 -9 -9 -9 -9 -9 -9 -9 -9 -9 -9 -9 -9 -9 -9 -9 -9
-5 -5 -5 -4 -5 -5 -5 -5 -6 -7 -7 -7 -7 -7 -7 -6 -6 -7 -8 -8 -8 -8 -9 -8 -8 -8 -7 -8 -8 -8 -8 -9 -9 -9 -9 -9 -9 -10 -10 -9 -9 -9 -9 -9 -9 -9 -9 -9 -9
-5 -5 -5 -5 -5 -5 -6 -6 -6 -6 -7 -7 -7 -7 -7 -6 -7 -7 -7 -8 -8 -9 -10 -9 -8 -8 -8 -8 -8 -8 -9 -8 -9 -9 -9 -10 -10 -10 -10 -10 -10 -10 -9 -9 -9 -9 -9 -9 -9
-5 -5 -5 -5 -6 -6 -6 -7 -7 -7 -7 -7 -7 -7 -7 -8 -7 -6 -6 -6 -7 -7 -7 -7 -9 -9 -9 -9 -9 -9 -9 -9 -9 -9 -9 -9 -10 -10 -10 -10 -10 -10 -10 -10 -10 -10 -10 -10 -10
-5 -6 -5 -5 -6 -6 -7 -8 -8 -8 -9 -9 -9 -9 -9 -9 -8 -7 -7 -6 -7 -7 -7 -8 -9 -8 -8 -8 -9 -10 -10 -10 -10 -10 -10 -10 -10 -10 -10 -10 -10 -10 -10 -10 -10 -10 -10 -10 -10
-6 -6 -6 -6 -7 -6 -7 -7 -7 -8 -9 -8 -8 -9 -9 -9 -10 -10 -9 -8 -8 -8 -8 -8 -9 -10 -10 -9 -10 -10 -11 -11 -11 -10 -10 -11 -11 -10 -10 -10 -10 -10 -10 -10 -10 -10 -10 -11 -10
-6 -5 -6 -7 -7 -7 -7 -7 -7 -8 -8 -7 -7 -8 -9 -9 -10 -10 -10 -10 -10 -9 -10 -10 -10 -11 -11 -11 -11 -11 -10 -11 -11 -11 -11 -11 -11 -11 -11 -11 -11 -11 -11 -11 -11 -11 -11 -11 -11
-6 -6 -6 -6 -6 -5 -6 -7 -7 -7 -7 -8 -9 -9 -9 -10 -10 -9 -9 -10 -11 -11 -11 -11 -11 -12 -12 -12 -11 -11 -11 -11 -11 -12 -12 -12 -11 -12 -12 -12 -11 -11 -11 -11 -11 -11 -11 -11 -11
-6 -6 -6 -6 -6 -7 -7 -8 -8 -8 -8 -10 -11 -10 -10 -10 -9 -9 -10 -11 -12 -13 -13 -13 -12 -11 -11 -12 -12 -11 -11 -11 -11 -11 -11 -12 -12 -12 -12 -12 -12 -12 -11 -11 -11 -11 -11 -10 -10
-5 -6 -7 -7 -7 -7 -7 -8 -8 -8 -10 -12 -12 -12 -10 -10 -10 -10 -11 -12 -13 -14 -13 -13 -15 -14 -12 -11 -10 -11 -11 -11 -11 -11 -11 -11 -11 -11 -13 -12 -13 -12 -12 -12 -12 -12 -11 -10 -10
-6 -6 -7 -8 -8 -8 -8 -9 -10 -10 -11 -12 -13 -12 -11 -10 -10 -10 -11 -12 -13 -13 -13 -13 -12 -12 -13 -12 -11 -11 -10 -11 -11 -11 -10 -11 -11 -11 -11 -12 -13 -13 -13 -12 -12 -13 -12 -12 -11
-6 -7 -8 -8 -8 -9 -10 -10 -11 -11 -11 -11 -11 -10 -10 -10 -11 -11 -11 -11 -12 -12 -12 -12 -13 -13 -13 -12 -12 -11 -11 -11 -11 -11 -11 -10 -11 -11 -11 -11 -11 -12 -13 -13 -12 -12 -13 -12 -12
-8 -8 -8 -8 -9 -10 -10 -11 -10 -10 -10 -10 -10 -10 -11 -10 -10 -10 -11 -11 -12 -12 -13 -12 -12 -12 -12 -12 -12 -12 -11 -11 -12 -12 -13 -13 -12 -8 -11 -11 -11 -12 -12 -13 -13 -12 -12 -13 -13
-8 -8 -8 -9 -9 -10 -10 -9 -9 -10 -10 -10 -10 -10 -10 -10 -11 -11 -12 -12 -12 -13 -13 -13 -13 -13 -13 -13 -13 -13 -13 -12 -11 -12 -13 -14 -13 -13 -13 -13 -13 -13 -13 -13 -13 -13 -13 -13 -12
-8 -9 -9 -9 -9 -9 -11 -11 -10 -10 -10 -10 -10 -10 -11 -12 -12 -13 -13 -13 -13 -13 -13 -14 -14 -14 -14 -14 -14 -13 -13 -13 -13 -12 -12 -12 -13 -13 -14 -14 -13 -13 -13 -13 -13 -13 -13 -13 -13
-9 -9 -9 -8 -9 -9 -11 -11 -11 -10 -10 -10 -11 -12 -12 -12 -12 -12 -12 -13 -13 -14 -15 -15 -16 -16 -15 -15 -15 -15 -14 -14 -14 -14 -14 -13 -13 -13 -13 -13 -14 -13 -13 -13 -13 -13 -13 -13 -13
-9 -10 -9 -9 -10 -10 -10 -11 -11 -11 -12 -13 -13 -13 -13 -13 -12 -12 -13 -13 -14 -15 -15 -15 -16 -17 -17 -16 -16 -16 -16 -16 -15 -15 -14 -15 -14 -14 -13 -13 -13 -14 -14 -13 -13 -12 -13 -13 -13
-9 -10 -10 -11 -11 -11 -11 -11 -12 -13 -13 -13 -13 -13 -13 -13 -13 -14 -14 -14 -14 -13 -14 -15 -15 -17 -17 -17 -17 -17 -17 -16 -16 -15 -15 -14 -15 -14 -15 -14 -14 -14 -14 -14 -14 -14 -13 -13 -13
-9 -10 -10 -10 -11 -11 -12 -11 -12 -13 -13 -13 -13 -13 -13 -14 -14 -15 -16 -17 -16 -16 -17 -17 -17 -17 -17 -17 -17 -17 -17 -18 -17 -16 -15 -15 -14 -14 -14 -14 -14 -14 -14 -14 -14 -14 -14 -14 -13
-10 -10 -10 -11 -11 -11 -12 -12 -12 -13 -13 -13 -14 -14 -15 -16 -17 -17 -18 -18 -18 -18 -18 -18 -17 -17 -17 -17 -17 -17 -18 -17 -16 -17 -17 -16 -15 -14 -14 -14 -14 -14 -14 -14 -14 -14 -14 -15 -12
-11 -11 -11 -11 -10 -11 -12 -12 -13 -14 -14 -14 -15 -15 -16 -17 -18 -19 -19 -19 -19 -19 -18 -18 -18 -18 -18 -18 -18 -18 -18 -18 -17 -17 -17 -17 -16 -15 -15 -14 -14 -14 -14 -15 -14 -14 -14 -14 -14
-11 -11 -11 -11 -12 -11 -12 -13 -14 -15 -15 -15 -15 -16 -17 -18 -19 -19 -18 -18 -18 -18 -18 -20 -20 -20 -20 -19 -19 -19 -20 -20 -19 -18 -18 -18 -17 -16 -15 -15 -15 -15 -15 -15 -14 -15 -15 -14 -14
-12 -12 -13 -13 -12 -11 -11 -12 -14 -14 -14 -14 -15 -16 -17 -18 -18 -18 -18 -18 -18 -18 -18 -21 -22 -22 -22 -22 -22 -22 -23 -23 -23 -20 -18 -18 -17 -17 -16 -16 -15 -15 -15 -15 -15 -15 -15 -14 -14
-12 -13 -13 -13 -13 -13 -12 -12 -15 -15 -14 -15 -17 -18 -18 -18 -18 -18 -18 -18 -18 -19 -21 -23 -24 -25 -25 -25 -25 -25 -25 -24 -23 -21 -21 -21 -21 -19 -18 -17 -16 -16 -15 -15 -15 -16 -15 -15 -14
-13 -14 -13 -13 -14 -14 -14 -13 -15 -15 -16 -17 -18 -18 -18 -18 -18 -18 -18 -19 -19 -21 -23 -25 -25 -25 -25 -26 -25 -25 -25 -24 -23 -23 -23 -22 -21 -19 -18 -19 -18 -17 -16 -15 -15 -15 -15 -14 -14
Height
5914 5913 5911 5911 5913 5909 5906 5907 5906 5906 5906 5905 5903 5903 5899 5896 5892 5893 5890 5887 5884 5882 5880 5878 5877 5876 5876 5874 5874 5874 5873 5873 5872 5872 5871 5871 5871 5870 5870 5869 5869 5868 5867 5867 5867 5867 5868 5867 5867
5914 5914 5912 5910 5913 5910 5909 5908 5908 5909 5907 5906 5899 5898 5896 5895 5894 5891 5890 5887 5885 5883 5881 5880 5878 5876 5875 5875 5874 5873 5872 5872 5872 5872 5871 5870 5870 5870 5869 5868 5868 5868 5866 5866 5866 5866 5866 5866 5866
5915 5912 5914 5913 5912 5910 5909 5910 5908 5906 5903 5901 5899 5896 5895 5894 5891 5890 5887 5886 5884 5882 5881 5880 5879 5877 5875 5873 5873 5872 5871 5870 5870 5870 5870 5869 5869 5868 5868 5867 5866 5865 5865 5864 5863 5863 5864 5864 5864
5915 5914 5913 5913 5912 5908 5908 5909 5909 5907 5901 5900 5897 5896 5895 5893 5891 5889 5886 5884 5883 5881 5880 5879 5877 5876 5875 5873 5871 5870 5869 5868 5868 5867 5866 5866 5866 5866 5866 5865 5864 5864 5863 5863 5862 5861 5861 5860 5860
5916 5914 5912 5910 5909 5909 5909 5909 5908 5906 5903 5901 5896 5895 5892 5891 5890 5888 5885 5881 5880 5878 5878 5877 5876 5875 5873 5871 5870 5868 5867 5865 5865 5865 5864 5863 5863 5862 5863 5862 5862 5862 5861 5860 5860 5859 5858 5858 5858
5916 5914 5912 5910 5909 5909 5908 5907 5906 5905 5901 5899 5893 5892 5891 5889 5891 5888 5884 5881 5877 5875 5874 5873 5873 5872 5871 5869 5867 5866 5864 5862 5861 5860 5860 5860 5860 5859 5859 5859 5858 5859 5858 5858 5857 5857 5856 5856 5855
5917 5914 5912 5911 5909 5908 5908 5907 5905 5904 5900 5896 5893 5889 5888 5887 5889 5888 5883 5879 5876 5873 5869 5870 5870 5870 5869 5867 5865 5863 5861 5859 5858 5856 5855 5855 5855 5855 5854 5854 5855 5854 5854 5854 5855 5854 5854 5853 5853
5918 5915 5913 5909 5907 5907 5905 5902 5900 5898 5895 5892 5892 5887 5884 5881 5880 5879 5879 5877 5873 5873 5870 5868 5867 5867 5865 5863 5861 5859 5858 5856 5854 5853 5851 5850 5850 5849 5849 5849 5849 5849 5850 5849 5849 5850 5850 5849 5849
5917 5914 5911 5909 5906 5906 5903 5900 5896 5892 5892 5889 5884 5882 5881 5878 5874 5870 5867 5866 5866 5872 5873 5869 5864 5861 5859 5857 5854 5853 5851 5850 5849 5847 5846 5845 5844 5842 5842 5842 5842 5842 5843 5844 5844 5844 5844 5845 5844
5915 5911 5908 5908 5909 5905 5899 5896 5891 5892 5893 5886 5884 5881 5877 5870 5862 5860 5858 5859 5862 5861 5860 5858 5856 5856 5853 5850 5847 5845 5844 5843 5841 5839 5838 5837 5837 5835 5834 5834 5834 5835 5836 5837 5837 5837 5838 5838 5839
5911 5909 5906 5903 5900 5896 5894 5891 5886 5889 5885 5879 5883 5881 5876 5865 5857 5855 5853 5854 5855 5854 5850 5849 5848 5846 5846 5843 5841 5839 5836 5835 5833 5831 5829 5827 5827 5826 5826 5826 5825 5826 5827 5828 5828 5829 5830 5831 5831
5905 5902 5901 5900 5894 5888 5885 5882 5884 5882 5880 5877 5875 5873 5867 5860 5858 5854 5853 5849 5847 5846 5842 5840 5840 5839 5836 5834 5832 5829 5828 5826 5824 5822 5820 5818 5816 5817 5816 5816 5816 5816 5816 5818 5819 5820 5820 5822 5823
5896 5896 5894 5892 5887 5885 5881 5880 5878 5874 5872 5869 5865 5861 5854 5850 5848 5850 5847 5843 5840 5836 5834 5831 5831 5830 5827 5825 5821 5819 5818 5816 5812 5810 5807 5808 5808 5807 5806 5807 5807 5807 5807 5807 5809 5810 5811 5812 5812
5893 5891 5890 5885 5882 5878 5873 5874 5871 5869 5864 5859 5857 5850 5847 5843 5841 5839 5837 5834 5831 5827 5825 5823 5820 5820 5818 5813 5811 5809 5807 5805 5803 5799 5794 5790 5793 5795 5796 5796 5797 5798 5798 5798 5798 5798 5800 5801 5802
5886 5887 5883 5878 5874 5870 5871 5866 5864 5862 5859 5856 5847 5841 5842 5840 5839 5836 5832 5829 5826 5821 5818 5815 5814 5810 5808 5805 5802 5798 5797 5794 5792 5788 5782 5780 5778 5779 5781 5783 5785 5788 5788 5788 5789 5790 5790 5791 5792
5880 5876 5875 5870 5867 5866 5864 5860 5857 5855 5852 5848 5840 5836 5838 5839 5836 5833 5828 5823 5818 5814 5811 5807 5805 5802 5797 5795 5794 5791 5787 5785 5779 5775 5770 5768 5767 5765 5764 5766 5771 5775 5775 5777 5778 5780 5780 5782 5783
5869 5868 5867 5869 5862 5859 5856 5854 5852 5850 5846 5841 5835 5835 5834 5833 5831 5827 5823 5819 5814 5808 5804 5801 5800 5797 5793 5786 5784 5782 5780 5776 5769 5762 5760 5731 5752 5754 5749 5751 5754 5756 5761 5764 5767 5769 5769 5771 5774
5865 5864 5863 5858 5859 5854 5852 5851 5848 5844 5841 5838 5835 5831 5828 5824 5822 5818 5815 5812 5808 5802 5796 5792 5789 5786 5784 5781 5774 5771 5767 5764 5758 5749 5744 5745 5741 5723 5732 5741 5740 5740 5746 5750 5754 5757 5758 5760 5762
5857 5857 5856 5853 5851 5849 5847 5846 5843 5841 5838 5834 5830 5827 5821 5814 5810 5807 5804 5799 5794 5789 5785 5780 5778 5775 5773 5770 5765 5757 5753 5749 5746 5741 5732 5727 5729 5728 5724 5726 5732 5733 5734 5738 5740 5742 5742 5747 5749
5853 5851 5849 5848 5846 5843 5841 5837 5835 5832 5829 5824 5820 5814 5809 5805 5800 5797 5792 5788 5783 5778 5774 5770 5767 5763 5758 5754 5750 5743 5736 5733 5729 5727 5722 5716 5711 5711 5713 5713 5717 5720 5724 5726 5727 5729 5732 5734 5736
5848 5846 5844 5845 5842 5839 5837 5834 5827 5826 5823 5816 5811 5806 5801 5796 5792 5787 5783 5778 5773 5767 5762 5758 5753 5748 5741 5735 5729 5724 5719 5713 5710 5709 5707 5702 5698 5694 5693 5696 5702 5704 5704 5709 5712 5714 5716 5719 5722
5843 5841 5840 5839 5838 5835 5830 5823 5817 5814 5812 5809 5804 5799 5795 5788 5782 5775 5770 5764 5758 5754 5749 5742 5734 5727 5720 5712 5707 5701 5699 5695 5690 5689 5687 5685 5680 5678 5675 5678 5680 5687 5687 5689 5693 5693 5694 5697 5700
5839 5838 5836 5834 5832 5830 5824 5818 5811 5807 5806 5802 5796 5791 5786 5778 5770 5763 5756 5749 5740 5738 5730 5722 5712 5706 5702 5693 5685 5681 5677 5674 5670 5668 5669 5665 5663 5660 5660 5660 5663 5664 5669 5672 5674 5675 5672 5676 5677
5835 5834 5832 5829 5825 5823 5817 5813 5808 5802 5798 5790 5782 5776 5770 5763 5756 5747 5738 5730 5724 5719 5712 5705 5696 5687 5681 5679 5670 5665 5661 5655 5651 5649 5650 5650 5649 5647 5644 5644 5647 5647 5649 5652 5654 5655 5655 5657 5657
5829 5827 5825 5824 5821 5817 5812 5805 5799 5793 5787 5778 5769 5760 5752 5745 5739 5733 5726 5716 5708 5704 5698 5690 5681 5671 5663 5657 5652 5645 5642 5637 5633 5631 5629 5627 5630 5630 5630 5631 5632 5632 5631 5634 5637 5638 5639 5640 5643
5823 5821 5818 5815 5814 5811 5806 5800 5789 5782 5773 5766 5757 5748 5737 5729 5722 5717 5710 5701 5696 5689 5681 5672 5662 5652 5646 5637 5631 5619 5613 5610 5612 5609 5607 5607 5606 5611 5612 5614 5617 5618 5618 5618 5621 5621 5622 5624 5625
5817 5814 5812 5808 5807 5805 5798 5791 5782 5775 5764 5756 5748 5741 5733 5725 5712 5701 5691 5684 5680 5673 5661 5649 5637 5629 5624 5617 5607 5596 5588 5581 5581 5586 5584 5587 5587 5588 5594 5598 5601 5603 5605 5607 5608 5606 5604 5607 5610
5810 5808 5805 5801 5798 5795 5793 5783 5774 5766 5758 5751 5743 5735 5726 5716 5705 5692 5678 5664 5662 5653 5640 5627 5614 5606 5599 5590 5585 5576 5569 5564 5561 5564 5563 5563 5564 5569 5578 5581 5585 5587 5590 5593 5594 5592 5591 5591 5594
5802 5800 5798 5793 5788 5782 5782 5780 5764 5755 5747 5741 5734 5724 5713 5704 5694 5682 5667 5651 5644 5633 5622 5610 5600 5590 5583 5575 5570 5564 5556 5553 5549 5545 5542 5542 5549 5556 5563 5567 5570 5573 5577 5579 5581 5580 5579 5579 5579
5794 5792 5789 5785 5778 5769 5764 5771 5755 5747 5739 5730 5720 5712 5703 5689 5677 5666 5649 5633 5626 5614 5605 5599 5592 5582 5575 5567 5560 5554 5547 5542 5538 5533 5531 5534 5535 5545 5551 5552 5555 5560 5565 5567 5569 5569 5567 5569 5570
Wind_Speed
18 16 14 15 15 18 24 24 25 25 23 20 20 14 11 17 19 19 16 14 16 16 11 6 5 6 7 7 5 5 5 6 5 5 5 5 5 5 5 5 5 6 6 6 5 4 4 2 3
13 13 13 14 9 16 19 20 20 19 20 20 27 24 23 21 19 18 18 18 16 14 12 10 8 7 9 10 9 8 8 9 10 10 9 8 7 7 8 9 9 10 10 10 9 9 9 8 8
7 10 10 10 8 12 18 18 19 22 23 25 25 26 24 24 25 22 22 19 19 16 13 11 11 11 11 12 13 13 13 11 12 13 14 14 13 12 12 11 13 13 14 14 12 12 12 12 11
8 12 13 14 7 12 15 16 19 16 23 25 26 26 24 24 23 24 25 22 20 18 17 14 12 14 15 15 16 16 16 16 16 16 17 18 18 17 16 15 14 15 14 14 13 11 11 12 12
10 11 11 11 12 13 9 11 13 14 21 22 25 26 27 23 24 26 23 26 24 25 20 19 17 15 16 18 20 21 22 22 21 21 22 22 21 21 21 19 18 17 16 15 14 12 11 11 12
7 7 10 14 18 13 10 7 10 14 22 24 28 28 29 30 24 22 20 25 26 26 27 25 22 21 19 19 21 23 25 26 27 26 25 25 26 26 25 23 21 20 20 19 18 16 15 14 13
6 10 15 18 19 20 18 16 15 15 20 24 29 33 34 33 30 22 25 25 25 29 32 30 29 28 25 24 25 24 26 28 28 30 29 29 27 27 28 27 26 23 23 23 22 20 19 17 16
12 15 17 20 22 23 23 24 23 22 25 29 29 33 37 39 38 34 31 25 28 22 24 34 34 31 31 30 28 29 29 29 28 29 30 31 31 30 29 30 30 29 26 25 24 24 22 21 20
16 19 19 20 21 24 25 24 27 30 30 32 38 40 39 41 43 44 42 40 38 30 27 31 30 33 32 32 32 31 32 31 31 30 29 31 31 34 34 33 32 31 30 28 28 27 27 26 25
16 20 23 23 20 21 23 24 30 30 29 35 36 39 42 43 49 50 50 49 46 44 42 36 33 33 33 32 32 32 30 32 34 33 32 31 30 33 34 37 36 35 33 32 32 31 32 30 30
18 20 25 26 28 28 27 30 35 32 33 41 38 37 35 39 42 43 46 46 46 44 45 42 40 40 38 37 35 33 32 34 35 37 36 35 33 32 33 35 37 39 38 36 35 35 35 35 34
24 26 24 23 28 33 35 37 35 36 37 40 40 37 32 33 35 37 39 43 43 42 42 37 37 37 37 36 35 36 35 36 36 37 41 41 37 35 34 35 37 37 40 41 40 39 39 38 39
30 28 28 29 33 35 39 39 40 42 42 33 29 32 36 39 40 37 38 38 41 35 27 27 26 25 27 30 35 39 40 40 41 40 42 44 42 39 37 37 37 37 39 38 39 42 44 42 42
29 30 30 33 36 39 42 39 35 33 29 30 31 35 37 42 43 39 34 36 34 29 30 28 31 30 29 33 39 40 43 45 43 43 45 45 43 43 41 40 38 37 38 38 38 38 41 40 44
32 31 33 37 38 37 33 32 30 26 25 29 37 39 35 37 38 33 30 26 26 26 27 27 31 36 36 36 38 42 42 45 45 50 50 46 44 43 42 44 42 40 39 39 39 39 39 38 40
34 38 34 29 30 30 27 28 25 24 25 32 39 39 34 33 32 28 28 30 29 32 34 34 35 37 42 43 39 41 42 43 48 52 52 47 46 45 45 43 41 42 44 42 42 40 40 39 37
37 33 30 23 27 22 21 21 21 20 21 28 32 34 35 34 30 25 24 30 34 38 38 38 37 37 36 43 43 41 42 43 50 53 53 48 51 50 50 46 44 44 45 46 45 44 42 42 40
29 26 24 26 17 12 12 12 15 20 24 28 29 31 32 34 37 38 37 37 39 42 43 45 46 46 44 40 44 44 45 44 49 55 57 57 56 39 39 53 41 40 44 46 47 47 47 43 41
28 26 20 16 14 13 14 17 19 21 23 27 30 35 42 47 48 47 47 48 50 51 49 48 47 47 48 46 46 48 47 50 49 51 57 61 58 59 58 48 46 46 44 45 46 49 52 47 45
24 18 14 14 15 17 17 21 24 28 32 36 43 45 47 48 47 48 50 51 52 57 58 58 57 54 52 54 53 52 53 53 54 54 56 58 60 60 60 60 54 52 53 51 49 49 46 48 46
16 11 12 12 16 18 18 18 25 32 39 44 45 46 47 49 53 56 56 57 57 58 59 61 63 63 60 57 54 57 58 55 53 54 59 61 62 62 61 60 61 61 61 60 59 57 54 51 51
10 12 14 16 18 20 23 31 35 38 36 38 42 43 49 55 58 61 60 60 59 59 58 61 59 57 55 58 60 61 57 57 59 57 58 61 65 66 67 63 63 62 68 69 62 63 62 61 58
11 13 16 18 20 23 26 32 34 38 38 41 44 51 55 59 58 59 60 59 63 64 63 64 65 58 50 51 54 55 57 66 66 61 61 63 64 66 68 68 67 67 66 69 72 76 77 70 68
15 16 17 20 24 27 31 35 40 41 43 48 57 59 61 61 61 61 60 61 64 65 60 60 61 63 63 56 56 56 57 59 61 65 69 66 64 65 67 66 65 66 67 66 70 71 75 78 78
18 19 21 22 24 28 32 39 46 45 49 54 59 59 60 59 58 57 56 59 63 63 65 66 66 70 69 68 68 71 70 64 62 63 60 65 69 65 65 65 64 63 64 63 64 66 71 68 66
21 24 25 28 29 33 36 42 47 47 50 58 57 61 61 60 59 60 61 63 64 67 69 72 74 75 74 76 74 78 79 78 68 65 59 53 65 69 65 63 61 61 62 62 57 58 59 63 65
24 27 30 33 36 38 41 44 50 44 52 56 62 60 56 57 58 63 68 72 72 72 75 69 68 70 72 74 77 76 73 74 72 62 56 57 56 69 66 61 59 58 59 56 51 54 58 59 62
28 29 32 37 40 42 41 49 51 53 62 64 60 57 55 55 61 68 73 78 78 81 82 73 67 67 66 65 65 68 64 59 61 58 55 59 51 61 65 63 60 59 52 48 52 51 52 59 60
33 33 37 41 44 45 46 53 52 58 63 60 56 55 58 62 67 71 77 84 83 82 77 59 56 59 60 57 50 43 47 46 40 46 44 39 33 52 49 61 59 54 54 49 48 43 46 38 56
35 36 39 40 43 48 52 55 55 61 57 56 56 59 61 68 73 77 85 85 83 77 63 48 53 54 53 46 41 44 43 37 34 34 32 31 20 25 18 38 43 50 48 46 44 37 36 41 38
Wind_Direction
97 86 72 56 44 24 25 12 8 2 356 350 1 30 20 24 10 13 22 8 9 12 2 348 329 313 305 301 291 290 289 281 261 246 242 243 238 240 250 247 241 223 224 223 222 219 220 238 231
90 82 81 58 38 36 28 8 354 355 353 347 350 11 11 2 7 8 5 7 8 8 2 336 313 298 294 291 287 278 270 270 273 269 256 248 251 257 259 264 263 262 252 248 249 250 251 249 247
84 72 64 44 60 40 26 351 337 347 339 346 350 350 358 355 350 357 355 2 357 356 349 338 314 298 284 283 283 280 275 267 262 266 268 266 263 262 269 271 271 266 267 264 259 253 251 254 248
39 21 25 7 10 35 11 337 337 338 326 340 342 337 339 343 345 348 349 349 345 345 339 332 321 305 291 280 276 276 276 274 269 264 263 262 262 262 268 271 273 268 263 266 263 258 254 249 248
26 18 1 329 333 35 6 340 339 330 325 330 323 324 327 333 337 343 339 332 335 331 328 324 318 306 296 288 279 275 273 273 274 276 272 267 262 259 263 266 270 268 262 258 257 258 255 249 243
22 344 318 328 337 353 342 338 336 327 324 322 315 315 317 322 338 349 328 325 323 320 318 315 312 308 302 294 288 281 275 274 275 276 274 273 270 268 267 263 263 266 264 262 260 255 252 250 243
341 313 322 327 325 333 336 334 330 329 315 311 312 315 313 314 320 325 327 317 314 313 311 310 313 312 306 300 295 288 282 279 276 275 275 275 273 272 269 267 267 265 260 259 263 261 260 252 244
322 316 322 319 326 327 327 325 320 315 308 306 305 305 310 313 314 309 303 291 292 298 294 310 312 308 308 306 302 298 293 288 282 278 277 273 272 271 270 268 267 266 262 259 259 261 260 255 250
309 311 310 310 318 319 320 320 312 306 308 308 308 309 310 309 307 304 300 300 301 301 302 299 300 300 299 300 297 294 291 289 286 284 279 276 273 267 266 266 265 264 263 263 260 258 258 259 258
310 308 308 309 308 309 310 304 291 296 293 291 296 301 306 308 302 304 304 303 309 311 307 300 290 287 286 286 287 285 283 283 282 281 279 277 274 270 266 263 263 263 262 261 260 258 257 257 258
303 293 299 306 304 295 287 285 289 298 289 290 294 296 297 292 288 292 298 305 308 306 301 300 297 298 297 293 288 284 284 281 276 275 274 273 271 271 269 263 260 260 261 259 257 257 259 259 257
299 300 298 290 287 288 288 290 289 281 286 292 297 298 293 289 293 294 296 295 300 301 301 302 298 295 294 291 284 280 276 271 271 269 267 266 266 268 269 266 263 258 256 256 257 257 256 258 260
301 296 294 294 291 296 296 295 298 301 304 306 304 302 297 297 298 305 307 308 307 311 303 293 289 285 288 283 274 276 277 273 269 262 258 260 260 260 263 267 266 264 262 258 257 258 258 257 258
292 294 297 296 297 295 294 300 302 306 311 315 316 298 301 307 316 324 324 322 320 317 308 300 296 289 276 272 273 272 274 272 268 265 264 251 251 255 256 259 262 263 265 265 261 258 259 260 259
298 300 296 292 291 293 303 301 311 317 320 320 306 302 306 310 316 320 317 317 310 304 293 285 287 286 285 284 281 275 271 271 271 261 260 256 250 249 248 253 256 259 261 263 264 264 262 262 268
296 295 295 296 296 307 313 313 317 320 313 306 297 298 306 312 310 309 307 309 303 302 304 301 295 291 291 292 289 288 285 274 271 270 269 257 259 249 246 245 251 256 258 258 260 261 264 261 261
295 298 301 308 318 321 312 313 317 314 309 296 294 307 313 313 314 317 304 303 311 312 311 305 303 298 294 295 294 292 287 285 278 274 276 279 253 245 243 247 246 246 254 258 261 262 258 259 260
297 301 317 312 315 312 312 318 318 310 304 306 314 314 315 314 318 323 320 316 315 313 309 306 305 303 300 293 290 288 286 280 278 279 276 275 280 276 270 251 247 249 252 254 257 260 262 257 258
302 313 315 317 329 331 332 324 324 319 312 310 312 314 318 324 326 325 322 319 315 311 305 301 302 302 297 292 287 284 280 279 275 272 273 274 272 273 277 273 263 251 249 255 255 256 256 256 258
309 317 321 336 331 330 339 330 329 323 323 321 325 325 325 325 322 318 313 310 307 308 308 307 305 304 298 290 285 279 278 275 273 273 272 271 270 269 267 269 268 266 263 254 252 255 255 257 256
308 317 322 325 320 325 336 321 314 322 326 326 324 322 321 317 315 313 311 310 309 305 300 294 293 294 292 290 280 276 275 270 267 268 269 270 269 268 264 262 259 258 260 254 254 251 250 251 253
308 315 315 318 321 321 318 319 324 327 328 324 319 316 312 312 312 312 311 310 308 303 299 295 294 297 292 286 284 277 272 267 262 260 259 263 265 266 267 265 262 256 257 259 256 256 249 246 244
305 308 311 312 317 326 325 323 326 323 323 317 311 309 311 312 309 307 304 301 300 302 299 298 297 303 301 296 295 290 286 277 265 263 257 254 256 260 263 264 264 265 261 260 259 259 253 244 242
296 301 307 314 324 326 326 321 320 317 320 315 315 314 314 314 311 308 307 305 304 303 305 308 309 306 302 296 291 290 289 286 284 278 264 258 252 254 258 261 262 263 264 263 263 262 265 265 252
299 309 313 316 318 320 323 318 317 320 320 317 315 314 313 310 306 305 304 302 303 304 305 306 304 300 298 297 295 294 291 287 285 282 280 261 256 250 252 254 258 260 265 265 265 266 265 266 263
300 306 310 314 312 311 314 318 321 326 320 318 315 314 310 307 307 306 303 301 302 305 304 302 298 293 294 296 294 292 292 290 284 287 269 277 256 253 249 251 253 256 261 268 270 268 265 262 264
301 306 309 311 307 310 315 319 320 323 314 314 313 311 307 307 309 305 303 304 304 306 305 302 296 294 294 293 293 292 292 290 288 285 283 281 268 250 250 250 252 256 260 267 269 270 267 259 257
301 309 314 312 312 311 316 321 324 317 313 314 314 309 306 305 303 305 307 306 308 308 309 308 308 304 298 292 289 287 294 292 295 291 283 283 263 247 248 252 252 253 262 264 265 272 273 262 257
301 309 309 310 313 316 321 324 320 314 316 316 311 307 306 307 308 307 308 308 312 311 310 315 311 314 317 315 304 306 304 304 304 297 293 268 234 242 253 252 255 258 260 266 268 274 280 276 259
303 307 306 310 316 319 320 326 317 319 316 312 311 313 313 314 312 312 314 313 312 308 312 314 313 322 323 319 304 310 314 313 306 296 282 234 210 217 265 257 263 261 262 267 272 285 287 275 266